Location: Rounton
(54.4000°N, 1.3500°W)
Time: 22:07:35
(UTC+01:00)

deb Delta 126 - Pass Details

Date: 04 July 2022
Orbit: 1120 x 1970 km, 101.5° (Epoch: 17 August)

Event Time Altitude Azimuth Distance (km) Brightness Sun altitude
Rises 01:42:48 0° 42° (NE) 4,893 ? -12.4°
Reaches altitude 10° 01:46:42 10° 27° (NNE) 4,036 ? -12.3°
Maximum altitude 01:52:52 19° 348° (NNW) 3,505 ? -12.2°
Drops below altitude 10° 01:59:25 10° 309° (NW) 4,337 ? -12.0°
Sets 02:03:51 0° 294° (WNW) 5,385 ? -11.8°
